Regional Weather Roundup
Issued by NWS

Home | Current Version | Previous Version | Text Only | Print | Product List | Glossary Off
Versions: 1 2 3 4 5 6 7 8 9 10 11 12 13 14 15 16 17 18 19 20 21 22 23 24 25 26 27 28 29 30 31 32 33 34 35 36 37 38 39 40 41 42 43 44 45 46 47 48 49 50

000
ASUS45 KTFX 060004
RWRMT
MONTANA HOURLY WEATHER ROUNDUP
NATIONAL WEATHER SERVICE GREAT FALLS MT
504 PM MST THU MAR 5 2015

NOTE: "FAIR" INDICATES FEW OR NO CLOUDS BELOW 12000 FEET WITH NO
SIGNIFICANT WEATHER AND/OR OBSTRUCTIONS TO VISIBILITY.

* THESE STATIONS ARE NOT UNDER NWS QUALITY CONTROL. THEY DO NOT
   REPORT WEATHER SUCH AS PRECIPITATION OR FOG.

MTZ001>007-043-060100-
WEST OF THE DIVIDE
CITY           SKY/WX    TMP DP  RH WIND       PRES   REMARKS
KALISPELL      PTCLDY    43  16  34 VRB6      30.25S
MISSOULA       CLOUDY    50  12  22 SW5       30.25S
BUTTE          MOCLDY    43  10  26 NW6       30.21R
MULLAN PASS    PTCLDY    36  12  37 VRB3      30.24S
* ANACONDA     MOCLDY    39  16  39 N7         N/A   WCI  34
* ESSEX        N/A       42   9  26 SW2G9      N/A
* LINCOLN      N/A       46   7  20 W7G17      N/A
* LOOKOUT PASS N/A       42  14  32 NE2        N/A
* POLSON       N/A       43  14  31 S2         N/A
* RONAN APT    PTCLDY    48  16  28 N/A        N/A
* SEELEY LAKE  N/A       46   9  22 W7G15      N/A
* THOMP F APT  PTCLDY    31  11  43 S3G11      N/A
$$

MTZ008-052>055-060100-
SOUTHWEST MONTANA
CITY           SKY/WX    TMP DP  RH WIND       PRES   REMARKS
BOZEMAN        CLOUDY    46  14  27 SW5       30.19F
DILLON         CLOUDY    46   9  22 SW15      30.20S
* W YELLOWSTON PTCLDY    31  13  47 SW6G18     N/A   WCI  25
* THREE FORKS  MOCLDY    50  10  20 S7         N/A
* BOULDER HILL N/A       39   6  25 N3         N/A
* MONIDA PASS  N/A       29  11  47 SE19G24    N/A   WCI  16
* RAYNOLDS PAS N/A       29  12  49 SE12       N/A   WCI  19
* WHITEHALL    N/A       51   6  16 W7G21      N/A
* WISE RIVER   N/A       45   3  17 W14G24     N/A
$$

MTZ009>010-012-014-046-048-049-054-060100-
EAST SLOPES AND CENTRAL MONTANA
CITY           SKY/WX    TMP DP  RH WIND       PRES   REMARKS
CUT BANK       PTCLDY    43  16  34 W21       30.06R
GREAT FALLS    PTCLDY    46   9  22 SW21      30.10S
HELENA         CLOUDY    45  12  26 NE5       30.18S
* DEARBORN     N/A       45  12  26 NE1G9      N/A
* EAST GLACIER N/A       38  11  33 W29G35     N/A   WCI  26
* MONARCH      N/A       37  12  36 W17G23     N/A   WCI  27
* PENDROY      N/A       43  20  40 W7         N/A
* ROGERS PASS  N/A       38   7  27 SE12G20    N/A   WCI  30
* SWEET GRASS  N/A       44  21  40 NW18G23    N/A
$$

MTZ011-013-016-021-035-040-045-047-050-051-060100-
NORTH CENTRAL MONTANA
CITY           SKY/WX    TMP DP  RH WIND       PRES   REMARKS
HAVRE          CLOUDY    48  18  30 NW13      30.06R
LEWISTOWN      CLOUDY    41  27  58 W12       30.10R
* N BAR RANCH  PTCLDY    41  14  33 NW8G20    30.10R
* CHESTER      N/A       50  18  28 N8G14      N/A
* DENTON       N/A       45  17  32 W22G30     N/A
* GEYSER       N/A       45  18  34 SW19G27    N/A
* JUDITH GAP   N/A       41  15  35 N4         N/A
* LOMA         N/A       52  14  22 W15G20     N/A
$$

MTZ017>020-022>027-061-062-060100-
NORTHEAST MONTANA
CITY           SKY/WX    TMP DP  RH WIND       PRES   REMARKS
GLASGOW        PTCLDY    46  16  30 W14       30.03R
GLENDIVE       PTCLDY    45  14  28 NW8       30.08S
JORDAN         MOCLDY    45  16  31 W9        30.06R
SIDNEY         CLEAR     43  16  34 W3        30.08R
WOLF POINT     MOCLDY    46  18  33 S3        30.04S
* BEAVER HILL  N/A       41  13  32 W17        N/A
* CIRCLE       N/A       47  20  34 SW2G11     N/A
* LINDSAY DVD  N/A       43  14  31 W17        N/A
* NAVAJO       N/A       40  21  47 W13        N/A   WCI  32
* SACO         N/A       48  16  28 SW11       N/A
$$

MTZ028>042-056>058-060100-
SOUTHCENTRAL AND SOUTHEAST MONTANA
CITY           SKY/WX    TMP DP  RH WIND       PRES   REMARKS
BAKER          PTCLDY    43  14  31 NW16      30.07S
BILLINGS       CLOUDY    45  14  28 SW17      30.12R
LIVINGSTON     CLOUDY    46  10  23 W16       30.15S
MILES CITY     PTCLDY    46  14  27 N/A       30.08R
* LAUREL APT   CLOUDY    45  12  26 SW11G16    N/A
* ROUNDUP APT  CLOUDY    50   7  17 W9         N/A
* ALZADA       N/A       43  16  34 W12        N/A
* HYSHAM       N/A       49   6  17 N3         N/A
* LAME DEER    N/A       41  12  30 NW2G9      N/A
* REED POINT   N/A       49  13  23 W11G17     N/A
* ROSCOE HILL  N/A       42   7  23 SW4        N/A
$$

REGIONAL REPORTS...DAKOTAS
CITY           SKY/WX    TMP DP  RH WIND       PRES   REMARKS
WILLISTON      MOCLDY    39  19  45 W10       30.02S WCI  32
DICKINSON      PTCLDY    39  12  33 W15       30.02R WCI  31
BEACH          CLEAR     39  14  36 NW16G21   30.07R WCI  30
CROSBY         CLEAR     32  23  69 SW10      29.98F WCI  24
WATFORD CITY   CLEAR     37  18  46 W7        30.01S WCI  32
BISMARCK       CLEAR     37  14  39 W14       30.06R WCI  28
GRAND FORKS    PTCLDY    21  10  62 S15       30.11F WCI   7
FARGO          CLEAR     23   7  50 S20       30.19F WCI   8
BUFFALO SD     CLEAR     45  10  24 NW17      30.02R
RAPID CITY     CLEAR     43  18  37 N16       30.11R
$$

REGIONAL REPORTS...WYOMING/IDAHO/WASHINGTON
CITY           SKY/WX    TMP DP  RH WIND       PRES   REMARKS
GILLETTE       CLEAR     39  18  43 NW10      30.13R WCI  32
SHERIDAN       MOCLDY    36  21  54 SW6       30.14S WCI  31
CODY           CLOUDY    39  19  45 E8        30.16R WCI  33
YELLOWSTONE LA PTCLDY    30   3  31 VRB3      30.29R
SALMON         PTCLDY    46  10  23 CALM      30.26S
MULLAN PASS    PTCLDY    36  12  37 VRB3      30.24S
SAND POINT     PTCLDY    50  16  26 W6        30.28R
SPOKANE        MOCLDY    50  19  29 SW10      30.28S

$$




USA.gov is the U.S. government's official web portal to all federal, state and local government web resources and services.